Location: Unspecified
(45.3999°N, 88.1269°W)
Time: 05:02:25
(UTC-06:00)

CZ-3 Stage 3 - Visible Passes

Search period start: 18 December 2017 00:00
Search period end: 28 December 2017 00:00
Orbit: 418 x 34779 km, 31.0° (Epoch: 18 December)

Date Brightness Start Highest point End Pass type
(mag) Time Alt. Az. Time Alt. Az. Time Alt. Az.
18 Dec 6.2 05:00:47 10° SW 05:11:48 19° S 06:01:21 10° SSE visible
19 Dec 6.6 01:32:16 10° SE 01:32:16 10° SE 01:32:23 10° SE visible
21 Dec 6.3 04:51:55 10° SW 05:02:41 18° S 05:46:29 10° SSE visible
24 Dec 6.4 04:43:04 10° SW 04:53:35 17° S 05:32:00 10° SSE visible
27 Dec 6.5 04:34:18 10° SW 04:44:28 16° S 05:17:47 10° SSE visible
